Regional Weather Roundup
Issued by NWS

Home | Current Version | Previous Version | Text Only | Print | Product List | Glossary On
Versions: 1 2 3 4 5 6 7 8 9 10 11 12 13 14 15 16 17 18 19 20 21 22 23 24 25 26 27 28 29 30 31 32 33 34 35 36 37 38 39 40 41 42 43 44 45 46 47 48 49 50
000
ASUS43 KDTX 291210
RWRMI
MICHIGAN HOURLY REGIONAL WEATHER ROUNDUP
NATIONAL WEATHER SERVICE DETROIT/PONTIAC MI
800 AM EDT WED JUL 29 2015

NOTE: "FAIR" INDICATES FEW OR NO CLOUDS BELOW 12,000 FEET WITH NO
SIGNIFICANT WEATHER AND/OR OBSTRUCTION TO VISIBILITY.

MIZ047>049-052>055-059>063-066>070-074>076-081>083-291300-
SOUTHEAST LOWER MICHIGAN

CITY           SKY/WX    TMP DP  RH WIND       PRES   REMARKS
ADRIAN         MOSUNNY   70  66  87 CALM      29.98R
6HR MIN TEMP:  65; 6HR MAX TEMP:  70;

ALMA           PTSUNNY   70  65  84 CALM      29.94S
ANN ARBOR      SUNNY     69  68  96 CALM      29.97S
BAD AXE        MOSUNNY   68  63  83 CALM      29.96S
6HR MIN TEMP:  61; 6HR MAX TEMP:  69;

CARO           MOSUNNY   68  64  87 CALM      29.95S
DETROIT CITY   PTSUNNY   74  67  78 CALM      29.97S
6HR MIN TEMP:  69; 6HR MAX TEMP:  74;

DETROIT        CLOUDY    74  68  81 CALM      29.97S
6HR MIN TEMP:  69; 6HR MAX TEMP:  74;

FLINT          MOSUNNY   73  67  81 S5        29.96S
6HR MIN TEMP:  64; 6HR MAX TEMP:  73;

GROSSE ILE     MOSUNNY   75  72  88 CALM      29.96R
HILLSDALE      SUNNY     73  68  86 S3        29.98S
6HR MIN TEMP:  69; 6HR MAX TEMP:  73;

HOWELL         MOSUNNY   72  68  87 SE5       29.97S
6HR MIN TEMP:  66; 6HR MAX TEMP:  72;


CITY           SKY/WX    TMP DP  RH WIND       PRES   REMARKS
JACKSON        MOSUNNY   74  65  73 SW6       29.97R
6HR MIN TEMP:  69; 6HR MAX TEMP:  74;

LAMBERTVILLE   MOSUNNY   71  68  90 CALM      29.98R
6HR MIN TEMP:  67; 6HR MAX TEMP:  71;

LANSING        PTSUNNY   74  63  68 S9        29.95S
6HR MIN TEMP:  71; 6HR MAX TEMP:  74;

LAPEER         FAIR      65  65  98 CALM      29.98R
MASON          MOSUNNY   70  63  78 S3        29.96S
MONROE         MOSUNNY   69  68  96 CALM      29.96R
MT. CLEMENS    PTSUNNY   72  70  94 CALM      29.95S
6HR MIN TEMP:  64; 6HR MAX TEMP:  72;

PONTIAC        PTSUNNY   72  68  87 CALM      29.97S
6HR MIN TEMP:  64; 6HR MAX TEMP:  72;

PORT HOPE        N/A     72  61  68 SW6       29.93S
6HR MIN TEMP:  69; 6HR MAX TEMP:  73;

PORT HURON     PTSUNNY   64  64 100 CALM      29.97S FOG
TRI CITIES     MOSUNNY   72  64  76 S5        29.94F
6HR MIN TEMP:  70; 6HR MAX TEMP:  75;

MIDLAND        PTSUNNY   73  62  67 S5        29.93S
TROY           PTSUNNY   74  66  75 CALM      29.99S
SAGINAW HB     MOSUNNY   72  64  78 S5        29.94S
$$
MIZ043>046-050>051-056>058-064>065-071>073-077>080-291300-
SOUTHWEST LOWER MICHIGAN

CITY           SKY/WX    TMP DP  RH WIND       PRES   REMARKS
BATTLE CREEK   MOSUNNY   74  65  73 S7        29.96S
6HR MIN TEMP:  72; 6HR MAX TEMP:  76;

BENTON HARBOR  CLOUDY    77  72  84 SW9       29.94R
6HR MIN TEMP:  74; 6HR MAX TEMP:  77;

BIG RAPIDS     PTSUNNY   70  66  88 CALM      29.92F
6HR MIN TEMP:  66; 6HR MAX TEMP:  70;

COLDWATER      MOSUNNY   72  65  80 CALM      29.97S
6HR MIN TEMP:  69; 6HR MAX TEMP:  72;

FREMONT        FAIR      73  69  88 SW6       29.92S
HOLLAND        CLOUDY    75  69  81 S6        29.94R
6HR MIN TEMP:  73; 6HR MAX TEMP:  77;

GRAND RAPIDS   CLOUDY    75  66  73 SW8       29.94R
6HR MIN TEMP:  72; 6HR MAX TEMP:  75;

IONIA          FAIR      73  64  71 SW3       29.93S
KALAMAZOO      MOSUNNY   75  67  76 S6        29.95F
6HR MIN TEMP:  71; 6HR MAX TEMP:  76;

LUDINGTON      CLOUDY    76  71  84 SW8       29.91R
6HR MIN TEMP:  71; 6HR MAX TEMP:  76;

MARSHALL       MOSUNNY   73  65  78 CALM      29.96S
MOUNT PLEASANT MOSUNNY   72  62  69 S5        29.93R
6HR MIN TEMP:  67; 6HR MAX TEMP:  72;

MUSKEGON       CLOUDY    77  71  82 SW8       29.92S
6HR MIN TEMP:  74; 6HR MAX TEMP:  80;

SOUTH HAVEN    CLOUDY    76  71  83 SW3       29.94S
$$
MIZ016>042-291300-
NORTHERN LOWER MICHIGAN

CITY           SKY/WX    TMP DP  RH WIND       PRES   REMARKS
ALPENA         CLOUDY    76  63  64 S8        29.91F
6HR MIN TEMP:  63; 6HR MAX TEMP:  76;

BEAVER ISLAND  PTSUNNY   75  66  73 SW13      29.84R
6HR MIN TEMP:  65; 6HR MAX TEMP:  75;

BELLAIRE       PTSUNNY   76  65  67 CALM      29.87S
6HR MIN TEMP:  65; 6HR MAX TEMP:  76;

CADILLAC       PTSUNNY   74  66  75 S8        29.92F
CHARLEVOIX     PTSUNNY   75  65  69 S8        29.88S
6HR MIN TEMP:  71; 6HR MAX TEMP:  75;

FRANKFORT      CLOUDY    76  71  83 SW9       29.88S
GAYLORD        MOSUNNY   74  64  71 S9        29.91F
6HR MIN TEMP:  71; 6HR MAX TEMP:  75;

GRAYLING       PTSUNNY   73  63  69 S7        29.92F
HARBOR SPRINGS PTSUNNY   74  65  71 S6        29.86S
HOUGHTON LAKE  CLOUDY    74  63  68 S8        29.93F
6HR MIN TEMP:  68; 6HR MAX TEMP:  74; 6HR PCP: TRACE;

MANISTEE       PTSUNNY   73  66  78 S3        29.90R
OSCODA         MOSUNNY   72  69  91 SW6       29.93S
PELLSTON       PTSUNNY   75  64  68 SE5       29.86S
6HR MIN TEMP:  67; 6HR MAX TEMP:  75;

ROGERS CITY    MOSUNNY   74  65  74 S10       29.90S
TRAVERSE CITY  PTSUNNY   76  66  71 VRB5      29.86S
6HR MIN TEMP:  73; 6HR MAX TEMP:  77;

$$
MIZ007>008-015-291300-
EASTERN UPPER MICHIGAN

CITY           SKY/WX    TMP DP  RH WIND       PRES   REMARKS
KINROSS        PTSUNNY   73  64  73 S9        29.85S
6HR MIN TEMP:  70; 6HR MAX TEMP:  73;

MACKINAC ISLAN CLOUDY    72  65  77 S8        29.85S
MUNISING         N/A     74  69  85 S7        29.77S
6HR MIN TEMP:  70; 6HR MAX TEMP:  74;

$$
MIZ004>006-011>014-085-291300-
CENTRAL UPPER MICHIGAN

CITY           SKY/WX    TMP DP  RH WIND       PRES   REMARKS
MANISTIQUE     PTSUNNY   70  68  94 SW8       29.81S
ESCANABA       CLOUDY    73  68  83 W12       29.81R
6HR MIN TEMP:  70; 6HR MAX TEMP:  73;

MENOMINEE      CLOUDY    73  63  68 W8        29.84S
6HR MIN TEMP:  72; 6HR MAX TEMP:  75;

SAWYER-GWINN   MOSUNNY   72  63  73 SW12      29.80S
$$
MIZ001>003-009>011-084-291300-
WESTERN UPPER MICHIGAN

CITY           SKY/WX    TMP DP  RH WIND       PRES   REMARKS
IRON MOUNTAIN  PTSUNNY   71  55  56 W9        29.84R
6HR MIN TEMP:  70; 6HR MAX TEMP:  73;

HOUGHTON       SUNNY     70  50  49 SW17G26   29.73F
6HR MIN TEMP:  70; 6HR MAX TEMP:  75; 6HR PCP:  0.01;

COPPER HARBOR    N/A     74  53  48 W8        29.69F
6HR MIN TEMP:  73; 6HR MAX TEMP:  77;

IRONWOOD       SUNNY     66  52  59 S10       29.75S
6HR MIN TEMP:  66; 6HR MAX TEMP:  77;

$$

ABBREVIATIONS USED IN REMARKS
   TC - TEMPERATURE IN CELSIUS
  WCI - WIND CHILL INDEX
   HX - HEAT INDEX
  VSB - VISIBILITY



USA.gov is the U.S. government's official web portal to all federal, state and local government web resources and services.